Montgomery, NY

7:05 PM EST on December 08, 2016 (GMT -0500)
Orange County

Weather History for KMGJ - January, 2013

Change the Weather History Date:

Saturday, January 19, 2013

  Actual Average (KSWF) Record (KSWF)
Temperature  
Mean Temperature 31 °F -  
Max Temperature 43 °F 29 °F 62 °F (1990)
Min Temperature 19 °F 14 °F -13 °F (1976)
Degree Days  
Heating Degree Days 34    
Moisture  
Dew Point 20 °F    
Average Humidity 60    
Maximum Humidity 82    
Minimum Humidity 47    
Precipitation  
Precipitation 0.00 in - - ()
Sea Level Pressure  
Sea Level Pressure 30.10 in    
Wind  
Wind Speed 7 mph (SW)    
Max Wind Speed 24 mph    
Max Gust Speed 31 mph    
Visibility 10 miles    
Events      
Averages and records for this station are not official NWS values.
T = Trace of Precipitation, MM = Missing Value Source: NWS Daily Summary

Daily Weather History Graph

Daily Weather History Graph

Search for Another Location

Airport or City:

Trip Planner

Search our weather history database for the weather conditions in past years. The results will help you decide how hot, cold, wet, or windy it might be!

Date:

Astronomy

Jan. 19, 2013 Rise Set
Actual Time 7:19 AM EST 4:57 PM EST
Civil Twilight 6:48 AM EST 5:27 PM EST
Nautical Twilight 6:14 AM EST 6:01 PM EST
Astronomical Twilight 5:41 AM EST 6:34 PM EST
Moon 11:22 AM EST (1/19) 12:49 AM EST (1/19)
Length of Visible Light 10h 38m
Length of Day
9h 38m
First Quarter, 57% of the Moon is Illuminated
Jan 19
First Quarter
Jan 26
Full
Feb 3
Last Quarter
Feb 10
New
Feb 17
First Quarter

Hourly Weather History & Observations

Time (EST) Temp. Windchill Dew Point Humidity Pressure Visibility Wind Dir Wind Speed Gust Speed Precip Events Conditions
12:54 AM 21.9 °F - 12.9 °F 68% 30.34 in 10.0 mi Calm Calm - N/A   Overcast
1:54 AM 23.0 °F - 10.0 °F 58% 30.33 in 10.0 mi Calm Calm - N/A   Mostly Cloudy
2:54 AM 19.9 °F - 12.0 °F 71% 30.32 in 10.0 mi Calm Calm - N/A   Clear
3:54 AM 19.9 °F 13.4 °F 12.0 °F 71% 30.29 in 10.0 mi SSW 4.6 mph - N/A   Overcast
4:54 AM 25.0 °F 19.3 °F 12.9 °F 60% 30.25 in 10.0 mi WSW 4.6 mph - N/A   Overcast
5:54 AM 26.1 °F - 14.0 °F 60% 30.24 in 10.0 mi Calm Calm - N/A   Overcast
6:54 AM 28.0 °F 18.1 °F 17.1 °F 63% 30.22 in 10.0 mi SW 11.5 mph - N/A   Overcast
7:54 AM 28.0 °F 20.0 °F 18.0 °F 66% 30.22 in 10.0 mi SSW 8.1 mph - N/A   Clear
9:54 AM 34.0 °F 23.0 °F 21.0 °F 59% 30.20 in 10.0 mi WSW 18.4 mph 27.6 mph N/A   Clear
10:54 AM 36.0 °F 26.0 °F 23.0 °F 59% 30.17 in 10.0 mi SW 17.3 mph 29.9 mph N/A   Partly Cloudy
11:54 AM 39.0 °F 28.3 °F 21.9 °F 50% 30.12 in 10.0 mi SW 24.2 mph 31.1 mph N/A   Clear
12:54 PM 39.9 °F 30.2 °F 21.9 °F 49% 30.07 in 10.0 mi SW 20.7 mph 27.6 mph N/A   Clear
1:54 PM 42.1 °F 33.1 °F 23.0 °F 47% 30.05 in 10.0 mi SSW 20.7 mph 26.5 mph N/A   Clear
2:54 PM 43.0 °F 35.7 °F 24.1 °F 47% 30.03 in 10.0 mi SSW 15.0 mph - N/A   Clear
3:54 PM 43.0 °F 36.0 °F 24.1 °F 47% 30.02 in 10.0 mi SSW 13.8 mph - N/A   Clear
4:54 PM 41.0 °F 34.7 °F 24.1 °F 51% 30.01 in 10.0 mi SW 10.4 mph - N/A   Clear
5:54 PM 39.0 °F 35.7 °F 24.1 °F 55% 30.00 in 10.0 mi SSW 4.6 mph - N/A   Clear
6:54 PM 32.0 °F 28.7 °F 24.1 °F 73% 29.98 in 10.0 mi ESE 3.5 mph - N/A   Clear
7:54 PM 28.9 °F - 24.1 °F 82% 29.97 in 10.0 mi Calm Calm - N/A   Clear
8:54 PM 30.0 °F - 24.1 °F 79% 29.94 in 10.0 mi Calm Calm - N/A   Scattered Clouds
9:54 PM 42.1 °F 37.1 °F 27.0 °F 55% 29.91 in 10.0 mi SSW 8.1 mph - N/A   Overcast
10:54 PM 42.1 °F 34.5 °F 27.0 °F 55% 29.88 in 10.0 mi SW 15.0 mph 24.2 mph N/A   Clear
11:54 PM 41.0 °F 33.5 °F 27.0 °F 57% 29.85 in 10.0 mi SSW 13.8 mph 23.0 mph N/A   Mostly Cloudy